Weather History for Valparaiso, IN

Change the Weather History Date:

Thursday, July 25, 2013

  Actual Average Record
Temperature  
Mean Temperature 66 °F 72 °F  
Max Temperature 79 °F 82 °F 96 °F (2012)
Min Temperature 52 °F 62 °F 48 °F (2014)
Degree Days  
Heating Degree Days 0 0  
Month to date heating degree days 6 0  
Since 1 June heating degree days 43 41  
Since 1 July heating degree days 6 0  
Cooling Degree Days 1 7  
Month to date cooling degree days 202 198  
Year to date cooling degree days 470 409  
Since 1 June cooling degree days 369 362  
Growing Degree Days 15 (Base 50)    
Moisture  
Dew Point 53 °F    
Average Humidity 65    
Maximum Humidity 93    
Minimum Humidity 39    
Precipitation  
Precipitation 0.00 in 0.12 in 1.07 in (2001)
Month to date precipitation 0.99 3.56  
Year to date precipitation 21.54 20.45  
Sea Level Pressure  
Sea Level Pressure 30.09 in    
Wind  
Wind Speed 2 mph (SSW)    
Max Wind Speed 10 mph    
Max Gust Speed 14 mph    
Visibility 10 miles    
Events      
T = Trace of Precipitation, MM = Missing Value Source: NWS Daily Summary

Daily Weather History Graph

Daily Weather History Graph

Search for Another Location

Airport:

Trip Planner

Search our weather history database for the weather conditions in past years. The results will help you decide how hot, cold, wet, or windy it might be!

Date:

Astronomy

Jul. 25, 2013 Rise Set
Actual Time 5:36 AM CDT 8:12 PM CDT
Civil Twilight 5:04 AM CDT 8:43 PM CDT
Nautical Twilight 4:24 AM CDT 9:23 PM CDT
Astronomical Twilight 3:39 AM CDT 10:08 PM CDT
Moon 9:48 PM CDT (7/25) 9:08 AM CDT (7/25)
Length of Visible Light 15h 39m
Length of Day
14h 35m
Waning Gibbous, 88% of the Moon is Illuminated
Jul 25
Waning Gibbous
Jul 29
Last Quarter
Aug 6
New
Aug 14
First Quarter
Aug 20
Full

Hourly Weather History & Observations

Time (CDT) Temp. Dew Point Humidity Pressure Visibility Wind Dir Wind Speed Gust Speed Precip Events Conditions
12:53 AM 55.0 °F 52.0 °F 89% 30.06 in 10.0 mi Calm Calm - N/A   Clear
1:53 AM 54.0 °F 52.0 °F 93% 30.05 in 10.0 mi Calm Calm - N/A   Clear
2:53 AM 54.0 °F 52.0 °F 93% 30.06 in 10.0 mi Calm Calm - N/A   Clear
3:53 AM 53.1 °F 51.1 °F 93% 30.06 in 10.0 mi Calm Calm - N/A   Clear
4:53 AM 52.0 °F 50.0 °F 93% 30.07 in 10.0 mi Calm Calm - N/A   Clear
5:53 AM 53.1 °F 51.1 °F 93% 30.09 in 10.0 mi Calm Calm - N/A   Clear
6:53 AM 57.9 °F 54.0 °F 87% 30.09 in 10.0 mi Calm Calm - N/A   Clear
7:53 AM 63.0 °F 55.0 °F 75% 30.11 in 10.0 mi West 3.5 mph - N/A   Clear
8:53 AM 66.9 °F 55.0 °F 66% 30.13 in 10.0 mi West 5.8 mph - N/A   Clear
9:53 AM 71.1 °F 53.1 °F 53% 30.11 in 10.0 mi Calm Calm - N/A   Clear
10:53 AM 71.1 °F 53.1 °F 53% 30.12 in 10.0 mi Calm Calm - N/A   Clear
11:53 AM 73.9 °F 53.1 °F 48% 30.12 in 10.0 mi SSE 4.6 mph - N/A   Scattered Clouds
12:53 PM 75.9 °F 52.0 °F 43% 30.12 in 10.0 mi NW 4.6 mph - N/A   Scattered Clouds
1:53 PM 77.0 °F 50.0 °F 39% 30.11 in 10.0 mi Variable 5.8 mph - N/A   Partly Cloudy
2:53 PM 77.0 °F 51.1 °F 40% 30.10 in 10.0 mi NW 8.1 mph - N/A   Mostly Cloudy
3:53 PM 77.0 °F 54.0 °F 45% 30.08 in 10.0 mi Calm Calm - N/A   Clear
4:53 PM 75.9 °F 53.1 °F 45% 30.07 in 10.0 mi Calm Calm - N/A   Clear
5:53 PM 78.1 °F 53.1 °F 42% 30.07 in 10.0 mi Variable 3.5 mph - N/A   Clear
6:53 PM 73.9 °F 57.0 °F 55% 30.07 in 10.0 mi ESE 3.5 mph - N/A   Clear
7:53 PM 72.0 °F 55.0 °F 55% 30.06 in 10.0 mi SSE 3.5 mph - N/A   Clear
8:53 PM 70.0 °F 57.0 °F 63% 30.06 in 10.0 mi South 3.5 mph - N/A   Clear
9:53 PM 68.0 °F 57.0 °F 68% 30.08 in 10.0 mi Calm Calm - N/A   Clear
10:53 PM 66.0 °F 55.9 °F 70% 30.09 in 10.0 mi Calm Calm - N/A   Clear
11:53 PM 64.9 °F 55.0 °F 70% 30.07 in 10.0 mi South 3.5 mph - N/A   Clear